Location: Helsinki
(60.1699°N, 24.9384°E)
Time: 21:20:07
(UTC+02:00)

Transit 2A Rocket - Pass Details

Date: 26 September 2023
Orbit: 593 x 903 km, 66.7° (Epoch: 29 November)

Event Time Altitude Azimuth Distance (km) Brightness Sun altitude
Rises 19:53:25 0° 282° (WNW) 3,161 10.9 -6.3°
Reaches altitude 10° 19:56:02 10° 291° (WNW) 2,185 9.0 -6.7°
Maximum altitude 20:00:37 38° 359° (N) 1,027 5.8 -7.2°
Drops below altitude 10° 20:04:53 10° 68° (ENE) 2,025 6.7 -7.7°
Enters shadow 20:05:38 - 72° (ENE) 2,299 6.9 -7.8°
Sets 20:07:14 0° 77° (ENE) 2,900 - -8.0°
